Regional Weather Roundup
Issued by NWS Portland, ME

Home | Current Version | Previous Version | Text Only | Print | Product List | Glossary On
Versions: 1 2 3 4 5 6 7 8 9 10 11 12 13 14 15 16 17 18 19 20 21 22 23 24 25 26 27 28 29 30 31 32 33 34 35 36 37 38 39 40 41 42 43 44 45 46 47 48 49 50
000
ASUS41 KGYX 241310
RWRGYX
WEATHER ROUNDUP FOR MAINE AND NEW HAMPSHIRE
NATIONAL WEATHER SERVICE GRAY ME
900 AM EDT SUN MAY 24 2015

MEZ002-005-006-010-012-015-018-020-021-024-026-027-029-241400-
MAINE

CITY           SKY/WX    TMP DP  RH WIND       PRES   REMARKS
PORTLAND       MOSUNNY   66  37  34 W14G20    30.17S
BAR HARBOR     PTSUNNY   55  39  54 SW10      30.11S
WISCASSET      PTSUNNY   61  36  39 VRB6      30.16S
ROCKLAND       PTSUNNY   55  36  47 W9        30.14R
FRYEBURG       SUNNY     68  35  29 SW9       30.15R
LEWISTONAUBURN MOSUNNY   63  36  36 SW10      30.16R
AUGUSTA        SUNNY     60  34  37 SW10      30.14R
WATERVILLE     SUNNY     61  36  39 SW9G16    30.10S
BANGOR         PTSUNNY   61  35  37 W9G18     30.10R
GREENVILLE       N/A     59  39  47 NW8       30.02F
MILLINOCKET    MOSUNNY   59  37  44 VRB5      30.04S
HOULTON        PTSUNNY   52  41  66 SW14      29.98F
PRESQUE ISLE   CLOUDY    55  37  50 SW12G20   29.95F
FRENCHVILLE    PTSUNNY   55  36  48 SW16G24   29.90S
CARIBOU        CLOUDY    56  38  50 W16G30    29.92F
$$

NHZ002-005-008-009-011-012-014-241400-
NEW HAMPSHIRE

CITY           SKY/WX    TMP DP  RH WIND       PRES   REMARKS
PORTSMOUTH     MOSUNNY   63  36  36 W8        30.21R
ROCHESTER      SUNNY     64  34  32 VRB5      30.21R
NASHUA         SUNNY     69  34  27 W10       30.24S
MANCHESTER     MOSUNNY   68  34  28 W8        30.21R
CONCORD        SUNNY     67  32  27 SW7       30.22R
LACONIA        SUNNY     64  34  32 SW14      30.19R
PLYMOUTH       FAIR      61  41  47 E3        30.19S
BERLIN         SUNNY     63  34  33 W10G18    30.14S
WHITEFIELD     SUNNY     62  35  36 W8G20     30.17R
JAFFREY        SUNNY     60  36  40 SW7       30.27S
KEENE          SUNNY     59  39  47 S6        30.28S
LEBANON        SUNNY     64  36  35 VRB5      30.22R
MT WASHINGTON  PTSUNNY   34  23  64 NW55G62     N/A  WCI  16
$$

VTZ005-007-008-241400-
VERMONT

CITY           SKY/WX    TMP DP  RH WIND       PRES   REMARKS
ST JOHNSBURY     N/A     62  36  37 MISG      30.16S
MONTPELIER     SUNNY     63  34  33 SW6       30.23R
BURLINGTON     MOSUNNY   64  34  32 S13G20    30.19R
$$

MAZ007-012-024-CTZ003-RIZ002-NYZ038-NYZ072-241400-
SOUTHERN NEW ENGLAND AND NY

CITY           SKY/WX    TMP DP  RH WIND       PRES   REMARKS
BOSTON         MOSUNNY   66  35  31 W14       30.26S
WORCESTER      SUNNY     62  33  33 W18G24    30.29R
NANTUCKET      SUNNY     59  51  75 SW17      30.33F
PROVIDENCE     MOSUNNY   65  40  39 W13       30.31S
HARTFORD       MOSUNNY   63  40  42 S6        30.31S
ALBANY         MOSUNNY   60  38  43 S5        30.31S
NEW YORK CITY  MOSUNNY   65  42  43 SW9       30.36S
$$

ANZ081-ANZ082-ANZ150-NHZ014-MEZ023>029-241400-
COASTAL MARINE OBSERVATIONS

STATION/POSITION TIME  TEMP    WIND        PRES    WAVE
                       AIR SEA DIR/SP/G            HT/PER
                 (UTC) (F)     (DEG/KT/KT) (MB)    (FT/S)
MOUNT DESERT ROC 1300   47     230/ 19/ 21   N/A
MATINICUS ROCK   1300   47     260/ 21/ 23   N/A
ISLE OF SHOALS   1300   59     250/ 15/ 15   N/A
JEFFREYS LEDGE   1203      47                N/A     3/ 4
CASHES LEDGE BUO 1250   51 47                N/A     5/ 5
GEORGES BANK BUO 1250   51 47  220/ 12/ 14   N/A     4/ 5
$$

.............KEY..............
   WCI - WIND CHILL
   TC  - TEMPERATURE IN CELSIUS
   VSB - VISIBILITY IN MILES
   HX  - HEAT INDEX
   FAIR- INDICATES FEW OR NO CLOUDS BELOW 12,000 FT, WITH NO
         SIGNIFICANT WEATHER AND/OR OBSTRUCTIONS TO VISIBILITY.




USA.gov is the U.S. government's official web portal to all federal, state and local government web resources and services.